Luqa, Malta

6:24 PM CET on December 18, 2018 (GMT +0100)
Luqa

Weather History for LMML - August, 2018

Change the Weather History Date:

Saturday, August 11, 2018

  Actual Average Record
Temperature  
Mean Temperature 82 °F -  
Max Temperature 89 °F 85 °F 100 °F (1999)
Min Temperature 75 °F 70 °F 68 °F (2010)
Cooling Degree Days 17    
Growing Degree Days 32 (Base 50)    
Moisture  
Dew Point 70 °F    
Average Humidity 67    
Maximum Humidity 94    
Minimum Humidity 36    
Precipitation  
Precipitation 0.00 in 0.03 in - ()
Sea Level Pressure  
Sea Level Pressure 30.05 in    
Wind  
Wind Speed 5 mph ()    
Max Wind Speed 12 mph    
Max Gust Speed -    
Visibility 7.0 miles    
Events      
Averages and records for this station are not official NWS values.
T = Trace of Precipitation, MM = Missing Value Source: Averaged Metar Reports

Daily Weather History Graph

Daily Weather History Graph

Search for Another Location

Airport or City:

Astronomy

Aug. 11, 2018 Rise Set
Actual Time 6:17 AM CEST 7:56 PM CEST
Civil Twilight 5:49 AM CEST 8:24 PM CEST
Nautical Twilight 5:16 AM CEST 8:56 PM CEST
Astronomical Twilight 4:41 AM CEST 9:31 PM CEST
Moon 6:03 AM CEST (8/11) 8:12 PM CEST (8/11)
Length of Visible Light 14h 34m
Length of Day
13h 39m
New Moon, 0% of the Moon is Illuminated
Aug 11
New Moon
Aug 18
First Quarter
Aug 26
Full
Sep 3
Last Quarter
Sep 9
New

Hourly Weather History & Observations

Time (CEST) Temp. Heat Index Dew Point Humidity Pressure Visibility Wind Dir Wind Speed Gust Speed Precip Events Conditions
12:15 AM 78.8 °F - 69.8 °F 74% 30.09 in - WNW 3.5 mph - N/A   Clear
12:45 AM 78.8 °F - 68.0 °F 69% 30.09 in - NW 2.3 mph - N/A   Clear
1:15 AM 77.0 °F - 68.0 °F 74% 30.09 in - NW 3.5 mph - N/A   Clear
1:45 AM 77.0 °F - 66.2 °F 69% 30.09 in - West 3.5 mph - N/A   Clear
2:00 AM 77 °F - 67 °F 63% 30.08 in 7 mi West 3.5 mph - -  
2:15 AM 77.0 °F - 66.2 °F 69% 30.06 in - West 3.5 mph - N/A   Clear
2:45 AM 77.0 °F - 64.4 °F 65% 30.06 in - West 4.6 mph - N/A   Clear
3:15 AM 77.0 °F - 64.4 °F 65% 30.06 in - NW 5.8 mph - N/A   Clear
3:45 AM 78.8 °F - 69.8 °F 74% 30.06 in - NW 3.5 mph - N/A   Clear
4:15 AM 77.0 °F - 71.6 °F 83% 30.06 in - WNW 3.5 mph - N/A   Clear
4:45 AM 77.0 °F - 71.6 °F 83% 30.04 in - NW 1.2 mph - N/A   Clear
5:00 AM 76 °F - 72 °F 82% 30.05 in 6 mi NW 2.3 mph - -  
5:15 AM 75.2 °F - 71.6 °F 89% 30.04 in - NW 2.3 mph - N/A   Clear
5:45 AM 75.2 °F - 73.4 °F 94% 30.04 in - WNW 2.3 mph - N/A   Clear
6:15 AM 75.2 °F - 73.4 °F 94% 30.06 in 6.2 mi West 3.5 mph - N/A   Partly Cloudy
6:45 AM 75.2 °F - 71.6 °F 89% 30.06 in - West 4.6 mph - N/A   Clear
7:15 AM 77.0 °F - 71.6 °F 83% 30.06 in 6.2 mi NW 2.3 mph - N/A   Partly Cloudy
7:45 AM 80.6 °F 85.4 °F 73.4 °F 79% 30.06 in 6.2 mi West 2.3 mph - N/A   Partly Cloudy
8:00 AM 80 °F - 73 °F 75% 30.06 in 7 mi SW 3.5 mph - -  
8:15 AM 82.4 °F 86.3 °F 69.8 °F 66% 30.06 in 6.2 mi South 2.3 mph - N/A   Partly Cloudy
8:45 AM 86.0 °F 87.3 °F 64.4 °F 48% 30.06 in 6.2 mi Variable 2.3 mph - N/A   Partly Cloudy
9:15 AM 86.0 °F 89.4 °F 68.0 °F 55% 30.06 in 6.2 mi South 3.5 mph - N/A   Partly Cloudy
9:45 AM 87.8 °F 91.4 °F 68.0 °F 52% 30.06 in - WSW 4.6 mph - N/A   Clear
10:15 AM 89.6 °F 93.4 °F 68.0 °F 49% 30.06 in - SW 5.8 mph - N/A   Clear
10:45 AM 89.6 °F 92.2 °F 66.2 °F 46% 30.06 in - SW 5.8 mph - N/A   Clear
11:00 AM 89 °F - 65 °F 36% 30.07 in 16 mi SW 5.8 mph - -  
11:15 AM 87.8 °F 90.4 °F 66.2 °F 49% 30.06 in 6.2 mi SSW 9.2 mph - N/A   Partly Cloudy
11:45 AM 87.8 °F 91.4 °F 68.0 °F 52% 30.06 in 6.2 mi SW 8.1 mph - N/A   Partly Cloudy
12:15 PM 87.8 °F 90.4 °F 66.2 °F 49% 30.06 in 6.2 mi SSW 9.2 mph - N/A   Partly Cloudy
12:45 PM 87.8 °F 89.4 °F 64.4 °F 46% 30.06 in 6.2 mi SW 8.1 mph - N/A   Partly Cloudy
1:15 PM 89.6 °F 93.4 °F 68.0 °F 49% 30.06 in 6.2 mi South 8.1 mph - N/A   Partly Cloudy
1:45 PM 89.6 °F 92.2 °F 66.2 °F 46% 30.06 in 6.2 mi SSW 8.1 mph - N/A   Partly Cloudy
2:00 PM 89 °F - 66 °F 37% 30.05 in 16 mi SW 8.1 mph - -  
2:15 PM 89.6 °F 92.2 °F 66.2 °F 46% 30.06 in 6.2 mi SW 9.2 mph - N/A   Partly Cloudy
2:45 PM 89.6 °F 93.4 °F 68.0 °F 49% 30.06 in 6.2 mi SW 9.2 mph - N/A   Partly Cloudy
3:15 PM 87.8 °F 92.6 °F 69.8 °F 55% 30.04 in 6.2 mi SSW 8.1 mph - N/A   Partly Cloudy
3:45 PM 87.8 °F 93.8 °F 71.6 °F 58% 30.04 in 6.2 mi SW 10.4 mph - N/A   Partly Cloudy
4:15 PM 87.8 °F 95.6 °F 73.4 °F 62% 30.04 in 6.2 mi WSW 10.4 mph - N/A   Partly Cloudy
4:45 PM 87.8 °F 95.6 °F 73.4 °F 62% 30.04 in 6.2 mi WSW 11.5 mph - N/A   Partly Cloudy
5:00 PM 89 °F - 72 °F 47% 30.01 in 12 mi WSW 10.4 mph - -   Scattered Clouds
5:15 PM 87.8 °F 95.6 °F 73.4 °F 62% 30.01 in 6.2 mi WSW 11.5 mph - N/A   Partly Cloudy
5:45 PM 87.8 °F 93.8 °F 71.6 °F 58% 30.01 in 6.2 mi WSW 9.2 mph - N/A   Partly Cloudy
6:15 PM 86.0 °F 93.4 °F 73.4 °F 66% 30.01 in 6.2 mi WSW 9.2 mph - N/A   Partly Cloudy
6:45 PM 86.0 °F 93.4 °F 73.4 °F 66% 30.01 in - WSW 6.9 mph - N/A   Clear
7:45 PM 84.2 °F 89.6 °F 71.6 °F 66% 30.01 in 6.2 mi WNW 5.8 mph - N/A   Partly Cloudy
8:00 PM 83 °F - 73 °F 65% 30.01 in 9 mi WNW 6.9 mph - -  
8:15 PM 82.4 °F 88.2 °F 73.4 °F 74% 30.01 in 6.2 mi NNW 8.1 mph - N/A   Partly Cloudy
8:45 PM 80.6 °F 85.4 °F 73.4 °F 79% 30.04 in 6.2 mi NNW 8.1 mph - N/A   Partly Cloudy
9:15 PM 80.6 °F 87.1 °F 77.0 °F 89% 30.04 in 6.2 mi NW 4.6 mph - N/A   Partly Cloudy
9:45 PM 80.6 °F 86.2 °F 75.2 °F 84% 30.04 in 6.2 mi NNW 5.8 mph - N/A   Partly Cloudy
10:15 PM 78.8 °F - 75.2 °F 89% 30.04 in 6.2 mi NNW 4.6 mph - N/A   Partly Cloudy
10:45 PM 78.8 °F - 75.2 °F 89% 30.04 in 6.2 mi NW 3.5 mph - N/A   Partly Cloudy
11:00 PM 79 °F - 75 °F 85% 30.04 in 6 mi NNW 3.5 mph - -   Scattered Clouds
11:45 PM 78.8 °F - 75.2 °F 89% 30.04 in 5.6 mi WNW 2.3 mph - N/A   Partly Cloudy